Flag for Argentina Weather past 2 weeks in Río Gallegos, Santa Cruz, Argentina

Now
36 °F

Clear.


Feels Like: 31 °F
Forecast: 35 / 48 °F
Wind: 6 mph from West

Location: Rio Gallegos Aerodrome

Current Time: Aug 29, 2014 at 5:16:17 AM

Latest Report: Aug 29, 2014 at 4:00 AM


Visibility: 10 mi

Pressure: 29.86 "Hg

Humidity: 87%

Dew point: 32 °F

Location of Río GallegosLocation

Historic Weather in Río Gallegos — Graph

°F

Río Gallegos temperature yesterday

Maximum temperature yesterday: 55 °F (at 2:00 PM)
Minimum temperature yesterday: 34 °F (at 7:00 AM)
Average temperature yesterday: 43 °F

Past Weeks' High & Low Weather Summary

 TemperatureHumidityPressure
High55 °F (Aug 28, 2:00 PM)100% (Aug 18, 5:00 AM)30.39 "Hg (Aug 18, 5:00 AM)
Low27 °F (Aug 19, 9:00 AM)32% (Aug 16, 4:00 PM)29.21 "Hg (Aug 14, 4:00 PM)
Average39 °F83%29.88 "Hg
* Reported Aug 14 4:00 AM — Aug 29 4:00 AM, Río Gallegos, Weather by CustomWeather, © 2014

Note: Actual official high and low records may vary slightly from our data, if they occured in-between our weather recording intervals... More about our weather records

Advertising

Río Gallegos weather history for previous 24 hours

 ConditionsComfort  
Time TempWeatherWind HumidityBarometerVisibility
4:00 AM
Aug 29
36 °FClear.6 mph87%29.86 "Hg10 mi
3:00 AM34 °FClear.7 mph93%29.89 "Hg10 mi
2:00 AM36 °FClear.5 mph93%29.86 "Hg10 mi
1:00 AM36 °FClear.8 mph87%29.86 "Hg10 mi
12:00 AM37 °FClear.6 mph87%29.86 "Hg10 mi
11:00 PM
Aug 28
39 °FClear.8 mph87%29.86 "Hg10 mi
10:00 PM41 °FClear.6 mph87%29.83 "Hg10 mi
9:00 PM41 °FClear.3 mph87%29.83 "Hg10 mi
8:00 PM43 °FClear.No wind76%29.83 "Hg10 mi
7:00 PM48 °FClear.6 mph66%29.80 "Hg10 mi
6:00 PM54 °FClear.10 mph58%29.80 "Hg10 mi
5:00 PM55 °FSunny.21 mph47%29.77 "Hg10 mi
4:00 PM55 °FScattered clouds.23 mph47%29.77 "HgN/A
3:00 PM55 °FPartly sunny.16 mph51%29.77 "HgN/A
2:00 PM55 °FScattered clouds.17 mph47%29.77 "HgN/A
1:00 PM52 °FScattered clouds.15 mph62%29.77 "HgN/A
12:00 PM50 °FScattered clouds.10 mph62%29.77 "HgN/A
11:00 AM43 °FPassing clouds.7 mph93%29.77 "HgN/A
10:00 AM37 °FPassing clouds.6 mph100%29.77 "HgN/A
9:00 AM34 °FSunny.No wind93%29.77 "Hg10 mi
8:00 AM34 °FSnow. Cloudy.9 mph93%29.77 "Hg4 mi
7:00 AM34 °FFog.No wind93%29.77 "Hg1 mi
6:00 AM36 °FPassing clouds.No wind100%29.77 "Hg1 mi
5:00 AM37 °FPassing clouds.No wind93%29.77 "HgN/A
Weather by CustomWeather, © 2014

See weather overviewHow to use our weather pages